Weather in Baia Mare

Romania     47°39′14″N   23°34′21″E
temp.,
°C
wind,
m/s
gust,
m/s
humid.,
%
clouds,
%
prec.,
mm/h
press.,
hPa
HPBL,
m
17 april, sat
sat1700:00+1ese119093 0.0 102241
03:000ese119058 0.0 102220
06:00−2e22928 0.0 102214
09:00+3se11765 0.0 1021326
12:00+8sw116568 0.0 10201071
15:00+9n226357 0.0 1018989
18:00+10nne126154 0.0 10161020
21:00+4ene2286100 0.0 101726
18 april, sun
sun1800:00+4ene2287100 0.0 101726
03:00+3ene228823 0.0 101726
06:00+3ene2285100 0.0 101624
09:00+7ese1170100 0.0 1015183
12:00+11wnw0159100 0.0 1014932
15:00+11wnw1359100 0.1 10151347
18:00+8ssw0184100 0.6 1015569
21:00+6n0094100 1.1 101614
19 april, mon
mon1900:00+6n0197100 1.6 101626
03:00+6ese0197100 3.3 101635
06:00+5wnw1199100 1.6 1016119
09:00+5nnw1298100 2.4 1016185
12:00+6n1193100 0.3 1015217
15:00+7nnw1291100 0.3 1014340
18:00+8n2382100 0.3 1011633
21:00+6nne2295100 0.4 101151
20 april, tue
tue2000:00+4ene1194100 0.0 101120
03:00+4ne1195100 0.0 101013
06:00+3nne1195100 0.0 101013
09:00+6nw128998 0.0 1010354
12:00+6wnw2288100 0.2 1010431
15:00+8w238186 0.6 1010808
18:00+8wnw238099 0.6 1010746
21:00+6ese019435 1.6 101114
21 april, wed
wed2100:00+3se119849 0.4 101220
03:00+4sse129986 0.8 1012192
06:00+4s1399100 0.9 1012257
09:00+5s2497100 2.8 1013253
12:00+6ssw2795100 0.4 1014639
15:00+8sw369199 2.8 1014600
18:00+10wsw368465 2.8 1013854
21:00+6ese229382 5.4 101518